| time (UTC) | temp F | wind direction | speed knots | gust knots | rain 1hr in | rain 24hr in | rain mn in | humidity % | barometer mb |
| 20260904145520 | 68 | 178 | 2.6 | 6.1 | 0.04 | 0.87 | 0.10 | 97 | 1017.0 |
| 20260904145021 | 67 | 174 | 3.5 | 6.1 | 0.05 | 0.87 | 0.10 | 97 | 1017.1 |
| 20260904144538 | 67 | 209 | 0.9 | 7.0 | 0.05 | 0.87 | 0.10 | 97 | 1017.3 |
| 20260904144018 | 67 | 142 | 2.6 | 7.0 | 0.04 | 0.86 | 0.09 | 97 | 1017.0 |
| 20260904143517 | 67 | 165 | 2.6 | 5.2 | 0.04 | 0.86 | 0.09 | 97 | 1016.7 |
| 20260904143036 | 67 | 167 | 2.6 | 5.2 | 0.04 | 0.86 | 0.09 | 97 | 1016.9 |
| 20260904142518 | 67 | 198 | 1.7 | 3.5 | 0.04 | 0.86 | 0.09 | 97 | 1016.8 |
| 20260904142019 | 67 | 0 | 0.9 | 3.5 | 0.03 | 0.85 | 0.08 | 97 | 1016.7 |
| 20260904141540 | 67 | 238 | 0.9 | 3.5 | 0.03 | 0.85 | 0.08 | 97 | 1016.8 |
| 20260904141017 | 67 | 209 | 0.0 | 2.6 | 0.02 | 0.84 | 0.07 | 97 | 1016.8 |
| 20260904140517 | 67 | 161 | 1.7 | 3.5 | 0.02 | 0.84 | 0.07 | 97 | 1016.8 |
| 20260904140039 | 67 | 168 | 0.9 | 3.5 | 0.02 | 0.83 | 0.06 | 97 | 1016.9 |
| 20260904135521 | 67 | 160 | 1.7 | 4.3 | 0.03 | 0.83 | 0.06 | 97 | 1016.9 |
| 20260904135018 | 67 | 197 | 1.7 | 4.3 | 0.02 | 0.82 | 0.05 | 97 | 1017.2 |
| 20260904134537 | 67 | 160 | 0.0 | 1.7 | 0.02 | 0.82 | 0.05 | 97 | 1017.2 |
| 20260904134022 | 67 | 0 | 0.0 | 0.0 | 0.03 | 0.82 | 0.05 | 97 | 1017.3 |
| 20260904133523 | 67 | 0 | 0.0 | 0.0 | 0.03 | 0.82 | 0.05 | 97 | 1017.1 |
| 20260904133038 | 67 | 0 | 0.0 | 0.9 | 0.03 | 0.82 | 0.05 | 97 | 1017.2 |
| 20260904132518 | 67 | 0 | 0.0 | 0.9 | 0.03 | 0.82 | 0.05 | 97 | 1017.3 |
| 20260904132020 | 67 | 163 | 0.0 | 0.9 | 0.04 | 0.82 | 0.05 | 97 | 1017.1 |
| 20260904131554 | 67 | 0 | 0.0 | 1.7 | 0.04 | 0.82 | 0.05 | 97 | 1016.9 |
| 20260904131020 | 67 | 0 | 0.0 | 1.7 | 0.04 | 0.82 | 0.05 | 97 | 1017.0 |
| 20260904130523 | 67 | 148 | 0.0 | 2.6 | 0.04 | 0.82 | 0.05 | 97 | 1017.1 |
| 20260904130040 | 67 | 0 | 0.0 | 2.6 | 0.03 | 0.81 | 0.04 | 97 | 1017.6 |
| 20260904125521 | 66 | 0 | 0.0 | 2.6 | 0.02 | 0.80 | 0.03 | 97 | 1017.4 |
| 20260904125017 | 66 | 167 | 0.9 | 1.7 | 0.02 | 0.80 | 0.03 | 97 | 1017.2 |
| 20260904124536 | 66 | 172 | 0.0 | 3.5 | 0.01 | 0.79 | 0.02 | 97 | 1017.0 |
| 20260904124016 | 66 | 0 | 0.0 | 3.5 | 0.01 | 0.79 | 0.02 | 97 | 1016.9 |
| 20260904123518 | 66 | 181 | 1.7 | 4.3 | 0.01 | 0.79 | 0.02 | 97 | 1016.8 |
| 20260904123037 | 66 | 0 | 0.9 | 4.3 | 0.01 | 0.79 | 0.02 | 97 | 1016.7 |
| 20260904122516 | 66 | 129 | 1.7 | 6.1 | 0.01 | 0.79 | 0.02 | 97 | 1016.6 |
| 20260904122016 | 67 | 155 | 0.9 | 6.1 | 0.00 | 0.78 | 0.01 | 97 | 1016.8 |
| 20260904121534 | 67 | 169 | 1.7 | 6.1 | 0.00 | 0.78 | 0.01 | 97 | 1016.8 |
| 20260904121016 | 67 | 0 | 0.9 | 6.1 | 0.00 | 0.78 | 0.01 | 97 | 1016.9 |
| 20260904120520 | 66 | 175 | 1.7 | 4.3 | 0.00 | 0.78 | 0.01 | 97 | 1016.5 |
| 20260904120046 | 66 | 162 | 2.6 | 4.3 | 0.00 | 0.78 | 0.01 | 97 | 1016.4 |
| 20260904115521 | 66 | 186 | 0.9 | 3.5 | 0.00 | 0.78 | 0.01 | 97 | 1016.2 |
| 20260904115016 | 66 | 193 | 0.0 | 3.5 | 0.00 | 0.78 | 0.01 | 97 | 1016.4 |
| 20260904114534 | 66 | 217 | 0.9 | 3.5 | 0.00 | 0.78 | 0.01 | 97 | 1016.4 |
| 20260904114016 | 66 | 128 | 0.9 | 2.6 | 0.00 | 0.78 | 0.01 | 97 | 1016.4 |
| 20260904113518 | 66 | 134 | 0.9 | 2.6 | 0.00 | 0.78 | 0.01 | 97 | 1016.5 |
| 20260904113036 | 66 | 194 | 0.0 | 1.7 | 0.00 | 0.78 | 0.01 | 97 | 1016.4 |
| 20260904112516 | 66 | 0 | 0.0 | 4.3 | 0.00 | 0.78 | 0.01 | 97 | 1016.4 |
| 20260904112015 | 66 | 0 | 0.0 | 6.1 | 0.00 | 0.78 | 0.01 | 97 | 1016.1 |
| 20260904111543 | 66 | 167 | 2.6 | 6.1 | 0.00 | 0.78 | 0.01 | 97 | 1016.1 |
| 20260904111020 | 67 | 186 | 1.7 | 6.1 | 0.00 | 0.78 | 0.01 | 97 | 1016.2 |
| 20260904110520 | 67 | 148 | 1.7 | 3.5 | 0.00 | 0.78 | 0.01 | 97 | 1016.2 |
| 20260904110040 | 66 | 167 | 0.9 | 3.5 | 0.00 | 0.78 | 0.01 | 97 | 1016.1 |
| 20260904105519 | 66 | 198 | 1.7 | 3.5 | 0.00 | 0.78 | 0.01 | 97 | 1016.0 |
| 20260904105017 | 66 | 117 | 0.9 | 3.5 | 0.00 | 0.78 | 0.01 | 97 | 1015.9 |
| 20260904104535 | 66 | 0 | 0.0 | 1.7 | 0.00 | 0.78 | 0.01 | 97 | 1015.9 |
| 20260904104016 | 66 | 0 | 0.9 | 1.7 | 0.00 | 0.78 | 0.01 | 97 | 1015.9 |
| 20260904103517 | 66 | 0 | 0.0 | 1.7 | 0.00 | 0.78 | 0.01 | 97 | 1015.8 |
| 20260904103047 | 67 | 0 | 0.0 | 0.9 | 0.00 | 0.78 | 0.01 | 97 | 1015.7 |
| 20260904102518 | 66 | 0 | 0.0 | 0.9 | 0.00 | 0.78 | 0.01 | 97 | 1015.6 |
| 20260904102019 | 66 | 0 | 0.0 | 0.9 | 0.00 | 0.78 | 0.01 | 97 | 1015.4 |
| 20260904101539 | 66 | 141 | 0.0 | 2.6 | 0.00 | 0.78 | 0.01 | 97 | 1015.3 |
| 20260904101017 | 66 | 0 | 0.9 | 2.6 | 0.00 | 0.78 | 0.01 | 97 | 1015.1 |
| 20260904100518 | 66 | 0 | 0.0 | 0.9 | 0.00 | 0.78 | 0.01 | 97 | 1015.2 |
| 20260904100038 | 66 | 0 | 0.0 | 1.7 | 0.00 | 0.78 | 0.01 | 97 | 1015.2 |
| 20260904095519 | 66 | 0 | 0.0 | 1.7 | 0.00 | 0.78 | 0.01 | 97 | 1015.0 |
| 20260904095018 | 66 | 0 | 0.0 | 3.5 | 0.00 | 0.78 | 0.01 | 97 | 1015.0 |
| 20260904094536 | 66 | 0 | 0.9 | 3.5 | 0.00 | 0.78 | 0.01 | 97 | 1015.0 |
| 20260904094018 | 66 | 150 | 0.0 | 2.6 | 0.01 | 0.78 | 0.01 | 97 | 1015.0 |
| 20260904093519 | 66 | 0 | 0.0 | 1.7 | 0.01 | 0.78 | 0.01 | 97 | 1015.0 |
| 20260904093041 | 66 | 0 | 0.0 | 1.7 | 0.01 | 0.78 | 0.01 | 97 | 1015.2 |
| 20260904092520 | 66 | 82 | 0.0 | 1.7 | 0.01 | 0.78 | 0.01 | 97 | 1015.3 |
| 20260904092021 | 66 | 158 | 0.0 | 0.9 | 0.01 | 0.78 | 0.01 | 97 | 1015.6 |
| 20260904091535 | 66 | 148 | 0.0 | 0.9 | 0.01 | 0.78 | 0.01 | 97 | 1015.6 |
| 20260904091020 | 66 | 0 | 0.0 | 0.9 | 0.01 | 0.78 | 0.01 | 97 | 1016.0 |
| 20260904090516 | 66 | 0 | 0.0 | 0.9 | 0.01 | 0.78 | 0.01 | 97 | 1016.0 |
| 20260904090035 | 66 | 0 | 0.0 | 0.9 | 0.01 | 0.78 | 0.01 | 97 | 1015.8 |
| 20260904085516 | 66 | 0 | 0.0 | 0.0 | 0.01 | 0.78 | 0.01 | 97 | 1015.9 |
| 20260904085019 | 66 | 0 | 0.0 | 0.0 | 0.01 | 0.78 | 0.01 | 97 | 1015.9 |
| 20260904084536 | 66 | 0 | 0.0 | 1.7 | 0.01 | 0.78 | 0.01 | 97 | 1015.9 |
| 20260904084018 | 66 | 0 | 0.0 | 1.7 | 0.00 | 0.77 | 0.00 | 97 | 1015.8 |
| 20260904083516 | 66 | 0 | 0.0 | 0.0 | 0.00 | 0.77 | 0.00 | 97 | 1015.8 |
| 20260904083056 | 66 | 0 | 0.0 | 0.0 | 0.00 | 0.77 | 0.00 | 97 | 1015.6 |
| 20260904082519 | 66 | 0 | 0.0 | 1.7 | 0.00 | 0.77 | 0.00 | 97 | 1015.6 |
| 20260904082017 | 66 | 0 | 0.0 | 1.7 | 0.00 | 0.77 | 0.00 | 97 | 1015.6 |
| 20260904081536 | 66 | 0 | 0.0 | 1.7 | 0.00 | 0.77 | 0.00 | 97 | 1015.6 |
| 20260904081017 | 66 | 0 | 0.0 | 1.7 | 0.00 | 0.77 | 0.00 | 97 | 1015.9 |
| 20260904080518 | 66 | 0 | 0.0 | 2.6 | 0.00 | 0.77 | 0.00 | 97 | 1016.0 |
| 20260904080036 | 66 | 353 | 0.9 | 2.6 | 0.00 | 0.77 | 0.00 | 97 | 1016.2 |
| 20260904075518 | 66 | 0 | 0.0 | 0.9 | 0.00 | 0.77 | 0.00 | 97 | 1015.9 |
| 20260904075017 | 66 | 0 | 0.0 | 0.9 | 0.00 | 0.77 | 0.00 | 97 | 1015.9 |
| 20260904074559 | 66 | 0 | 0.0 | 0.9 | 0.00 | 0.77 | 0.00 | 97 | 1015.8 |
| 20260904074018 | 65 | 0 | 0.0 | 0.0 | 0.00 | 0.77 | 0.00 | 97 | 1015.7 |
| 20260904073521 | 66 | 0 | 0.0 | 0.0 | 0.00 | 0.77 | 0.00 | 97 | 1015.5 |
| 20260904073038 | 66 | 0 | 0.0 | 0.0 | 0.00 | 0.77 | 0.00 | 97 | 1015.5 |
| 20260904072520 | 65 | 0 | 0.0 | 0.0 | 0.00 | 0.77 | 0.00 | 97 | 1015.6 |
| 20260904072019 | 65 | 0 | 0.0 | 0.0 | 0.00 | 0.77 | 0.00 | 97 | 1015.5 |
| 20260904071538 | 66 | 0 | 0.0 | 0.0 | 0.00 | 0.77 | 0.00 | 97 | 1015.5 |
| 20260904071017 | 65 | 0 | 0.0 | 0.0 | 0.00 | 0.77 | 0.00 | 97 | 1015.6 |
| 20260904070518 | 65 | 0 | 0.0 | 0.0 | 0.00 | 0.77 | 0.00 | 97 | 1015.7 |
| 20260904070036 | 65 | 0 | 0.0 | 0.0 | 0.00 | 0.77 | 0.00 | 97 | 1016.0 |
| 20260904065521 | 65 | 0 | 0.0 | 0.9 | 0.00 | 0.77 | 0.00 | 97 | 1016.1 |
| 20260904065015 | 65 | 0 | 0.0 | 0.9 | 0.00 | 0.77 | 0.00 | 97 | 1016.4 |
| 20260904064537 | 65 | 0 | 0.0 | 0.0 | 0.00 | 0.77 | 0.00 | 97 | 1016.6 |
| 20260904064015 | 65 | 0 | 0.0 | 0.0 | 0.00 | 0.77 | 0.00 | 97 | 1016.6 |
| 20260904063517 | 65 | 0 | 0.0 | 0.0 | 0.00 | 0.77 | 0.00 | 97 | 1016.5 |
| 20260904063045 | 65 | 0 | 0.0 | 0.0 | 0.00 | 0.77 | 0.00 | 97 | 1016.8 |
| 20260904062528 | 65 | 0 | 0.0 | 0.0 | 0.00 | 0.77 | 0.00 | 97 | 1016.8 |
| 20260904062019 | 65 | 0 | 0.0 | 0.0 | 0.00 | 0.77 | 0.00 | 97 | 1016.8 |
| 20260904061539 | 65 | 0 | 0.0 | 0.0 | 0.00 | 0.77 | 0.00 | 97 | 1016.7 |
| 20260904061018 | 65 | 0 | 0.0 | 0.0 | 0.00 | 0.77 | 0.00 | 97 | 1016.6 |
| 20260904060518 | 65 | 0 | 0.0 | 0.0 | 0.00 | 0.77 | 0.00 | 97 | 1016.7 |
| 20260904060035 | 65 | 0 | 0.0 | 0.0 | 0.00 | 0.77 | 0.00 | 97 | 1016.7 |
| 20260904055516 | 65 | 0 | 0.0 | 0.0 | 0.00 | 0.77 | 0.00 | 97 | 1016.7 |
| 20260904055017 | 66 | 0 | 0.0 | 0.0 | 0.00 | 0.77 | 0.00 | 97 | 1016.7 |
| 20260904054538 | 66 | 0 | 0.0 | 0.0 | 0.00 | 0.77 | 0.00 | 97 | 1016.7 |
| 20260904054018 | 66 | 0 | 0.0 | 0.0 | 0.00 | 0.77 | 0.00 | 97 | 1016.8 |
| 20260904053520 | 65 | 0 | 0.0 | 0.0 | 0.00 | 0.77 | 0.00 | 97 | 1016.8 |
| 20260904053039 | 65 | 0 | 0.0 | 0.0 | 0.00 | 0.77 | 0.00 | 97 | 1016.7 |
| 20260904052519 | 65 | 0 | 0.0 | 0.0 | 0.00 | 0.77 | 0.00 | 97 | 1016.6 |
| 20260904052024 | 65 | 0 | 0.0 | 0.0 | 0.00 | 0.77 | 0.00 | 97 | 1016.8 |
| 20260904051534 | 65 | 0 | 0.0 | 0.9 | 0.00 | 0.77 | 0.00 | 97 | 1016.7 |
| 20260904051018 | 66 | 0 | 0.0 | 0.9 | 0.00 | 0.77 | 0.00 | 97 | 1016.8 |
| 20260904050516 | 65 | 0 | 0.0 | 0.0 | 0.00 | 0.77 | 0.00 | 97 | 1016.8 |
| 20260904050037 | 65 | 0 | 0.0 | 0.0 | 0.00 | 0.77 | 0.00 | 97 | 1016.9 |
| 20260904045518 | 65 | 0 | 0.0 | 0.0 | 0.00 | 0.77 | 0.00 | 97 | 1016.8 |
| 20260904045021 | 65 | 0 | 0.0 | 0.0 | 0.00 | 0.77 | 0.00 | 97 | 1016.8 |
| 20260904044536 | 65 | 0 | 0.0 | 0.0 | 0.00 | 0.77 | 0.00 | 97 | 1016.8 |
| 20260904044018 | 66 | 0 | 0.0 | 0.0 | 0.00 | 0.77 | 0.00 | 97 | 1016.7 |
| 20260904043520 | 66 | 0 | 0.0 | 0.9 | 0.00 | 0.77 | 0.00 | 97 | 1016.8 |
| 20260904043038 | 66 | 331 | 0.0 | 0.9 | 0.00 | 0.77 | 0.00 | 97 | 1016.7 |
| 20260904042515 | 66 | 0 | 0.0 | 0.9 | 0.00 | 0.77 | 0.00 | 97 | 1016.7 |
| 20260904042021 | 66 | 0 | 0.0 | 0.0 | 0.00 | 0.77 | 0.00 | 97 | 1016.7 |
| 20260904041538 | 66 | 0 | 0.0 | 0.0 | 0.00 | 0.77 | 0.00 | 97 | 1016.6 |
| 20260904041020 | 66 | 0 | 0.0 | 0.9 | 0.00 | 0.77 | 0.00 | 97 | 1016.5 |
| 20260904040521 | 66 | 0 | 0.0 | 0.9 | 0.00 | 0.77 | 0.00 | 97 | 1016.4 |
| 20260904040043 | 66 | 0 | 0.0 | 0.9 | 0.00 | 0.77 | 0.00 | 97 | 1016.3 |
| 20260904035518 | 66 | 331 | 0.0 | 0.9 | 0.00 | 0.77 | 0.77 | 97 | 1016.2 |
| 20260904035017 | 66 | 0 | 0.0 | 0.9 | 0.00 | 0.77 | 0.77 | 97 | 1016.2 |
| 20260904034533 | 66 | 0 | 0.0 | 0.0 | 0.00 | 0.77 | 0.77 | 97 | 1016.2 |
| 20260904034018 | 66 | 0 | 0.0 | 0.9 | 0.00 | 0.77 | 0.77 | 97 | 1016.2 |
| 20260904033521 | 66 | 0 | 0.0 | 0.9 | 0.00 | 0.77 | 0.77 | 97 | 1016.0 |
| 20260904033037 | 66 | 0 | 0.0 | 0.9 | 0.00 | 0.77 | 0.77 | 97 | 1016.1 |
| 20260904032520 | 66 | 0 | 0.0 | 0.9 | 0.00 | 0.77 | 0.77 | 97 | 1016.0 |
| 20260904032020 | 67 | 0 | 0.0 | 0.9 | 0.00 | 0.77 | 0.77 | 97 | 1015.9 |
| 20260904031538 | 66 | 331 | 0.0 | 0.9 | 0.00 | 0.77 | 0.77 | 97 | 1015.9 |
| 20260904031020 | 67 | 0 | 0.0 | 0.0 | 0.00 | 0.77 | 0.77 | 97 | 1015.9 |
| 20260904030516 | 67 | 0 | 0.0 | 0.0 | 0.00 | 0.77 | 0.77 | 97 | 1016.0 |
| 20260904030037 | 67 | 0 | 0.0 | 0.0 | 0.00 | 0.77 | 0.77 | 97 | 1015.9 |
| 20260904025519 | 67 | 0 | 0.0 | 0.0 | 0.00 | 0.77 | 0.77 | 97 | 1015.8 |
| 20260904025018 | 67 | 0 | 0.0 | 0.0 | 0.00 | 0.77 | 0.77 | 97 | 1015.8 |
| 20260904024537 | 67 | 0 | 0.0 | 0.0 | 0.00 | 0.77 | 0.77 | 97 | 1015.7 |
| 20260904024021 | 67 | 0 | 0.0 | 0.0 | 0.00 | 0.77 | 0.77 | 97 | 1015.8 |
| 20260904023518 | 67 | 0 | 0.0 | 0.0 | 0.00 | 0.77 | 0.77 | 97 | 1015.8 |
| 20260904023046 | 67 | 0 | 0.0 | 0.0 | 0.00 | 0.77 | 0.77 | 97 | 1015.8 |
| 20260904022516 | 67 | 0 | 0.0 | 0.0 | 0.00 | 0.77 | 0.77 | 97 | 1015.7 |
| 20260904022017 | 67 | 0 | 0.0 | 0.0 | 0.00 | 0.77 | 0.77 | 97 | 1015.7 |
| 20260904021540 | 67 | 0 | 0.0 | 0.0 | 0.00 | 0.77 | 0.77 | 97 | 1015.7 |
| 20260904021022 | 67 | 0 | 0.0 | 0.0 | 0.00 | 0.77 | 0.77 | 97 | 1015.7 |
| 20260904020520 | 67 | 0 | 0.0 | 0.0 | 0.00 | 0.77 | 0.77 | 97 | 1015.7 |
| 20260904020037 | 67 | 0 | 0.0 | 0.0 | 0.00 | 0.77 | 0.77 | 97 | 1015.6 |
| 20260904015518 | 67 | 0 | 0.0 | 0.0 | 0.00 | 0.77 | 0.77 | 97 | 1015.8 |
| 20260904015020 | 67 | 0 | 0.0 | 0.0 | 0.00 | 0.77 | 0.77 | 97 | 1015.8 |
| 20260904014553 | 67 | 0 | 0.0 | 0.0 | 0.00 | 0.77 | 0.77 | 97 | 1015.8 |
| 20260904014017 | 68 | 0 | 0.0 | 0.0 | 0.00 | 0.77 | 0.77 | 97 | 1015.9 |
| 20260904013518 | 68 | 0 | 0.0 | 0.0 | 0.00 | 0.77 | 0.77 | 97 | 1016.1 |
| 20260904013041 | 68 | 0 | 0.0 | 0.9 | 0.00 | 0.77 | 0.77 | 97 | 1016.1 |
| 20260904012516 | 68 | 0 | 0.0 | 0.9 | 0.00 | 0.77 | 0.77 | 97 | 1016.1 |
| 20260904012019 | 68 | 0 | 0.0 | 0.9 | 0.00 | 0.77 | 0.77 | 97 | 1016.2 |
| 20260904011540 | 68 | 0 | 0.0 | 0.0 | 0.00 | 0.77 | 0.77 | 97 | 1016.1 |
| 20260904011019 | 68 | 0 | 0.0 | 0.0 | 0.00 | 0.77 | 0.77 | 97 | 1016.0 |
| 20260904010517 | 68 | 0 | 0.0 | 0.9 | 0.00 | 0.77 | 0.77 | 97 | 1015.9 |
| 20260904010042 | 68 | 0 | 0.0 | 3.5 | 0.00 | 0.77 | 0.77 | 97 | 1015.9 |
| 20260904005518 | 68 | 0 | 0.9 | 3.5 | 0.00 | 0.77 | 0.77 | 97 | 1015.9 |
| 20260904005016 | 68 | 30 | 0.0 | 3.5 | 0.00 | 0.77 | 0.77 | 97 | 1015.8 |
| 20260904004538 | 68 | 0 | 0.0 | 0.9 | 0.00 | 0.77 | 0.77 | 97 | 1015.6 |
| 20260904004018 | 68 | 0 | 0.0 | 0.0 | 0.00 | 0.77 | 0.77 | 97 | 1015.3 |
| 20260904003516 | 68 | 0 | 0.0 | 0.0 | 0.00 | 0.77 | 0.77 | 97 | 1015.1 |
| 20260904003039 | 68 | 0 | 0.0 | 0.0 | 0.00 | 0.77 | 0.77 | 97 | 1015.2 |
| 20260904002518 | 69 | 0 | 0.0 | 1.7 | 0.00 | 0.77 | 0.77 | 97 | 1015.1 |
| 20260904002017 | 69 | 0 | 0.0 | 1.7 | 0.00 | 0.77 | 0.77 | 97 | 1015.0 |
| 20260904001539 | 69 | 0 | 0.0 | 2.6 | 0.00 | 0.77 | 0.77 | 97 | 1015.0 |
| 20260904001018 | 69 | 0 | 0.0 | 2.6 | 0.00 | 0.77 | 0.77 | 97 | 1015.0 |
| 20260904000520 | 69 | 154 | 0.0 | 2.6 | 0.00 | 0.77 | 0.77 | 97 | 1014.9 |
| 20260904000036 | 69 | 164 | 0.0 | 4.3 | 0.00 | 0.77 | 0.77 | 97 | 1014.9 |
| 20260903235517 | 69 | 169 | 0.0 | 4.3 | 0.00 | 0.77 | 0.77 | 97 | 1014.9 |
| 20260903235018 | 69 | 188 | 0.9 | 7.0 | 0.00 | 0.77 | 0.77 | 97 | 1014.8 |
| 20260903234537 | 69 | 216 | 1.7 | 7.0 | 0.00 | 0.77 | 0.77 | 97 | 1014.9 |
| 20260903234020 | 69 | 194 | 1.7 | 4.3 | 0.00 | 0.77 | 0.77 | 97 | 1014.8 |
| 20260903233518 | 69 | 0 | 0.9 | 5.2 | 0.00 | 0.77 | 0.77 | 97 | 1014.7 |
| 20260903233041 | 69 | 220 | 0.9 | 5.2 | 0.00 | 0.77 | 0.77 | 97 | 1014.7 |
| 20260903232520 | 69 | 186 | 1.7 | 7.8 | 0.00 | 0.77 | 0.77 | 97 | 1014.4 |
| 20260903232020 | 69 | 168 | 3.5 | 7.8 | 0.00 | 0.77 | 0.77 | 97 | 1014.3 |
| 20260903231534 | 69 | 181 | 2.6 | 5.2 | 0.00 | 0.77 | 0.77 | 97 | 1014.3 |
| 20260903231017 | 69 | 0 | 0.9 | 4.3 | 0.00 | 0.77 | 0.77 | 97 | 1014.2 |
| 20260903230517 | 69 | 0 | 0.0 | 4.3 | 0.00 | 0.77 | 0.77 | 97 | 1014.1 |
| 20260903230045 | 69 | 0 | 0.0 | 3.5 | 0.00 | 0.77 | 0.77 | 97 | 1014.0 |
| 20260903225518 | 69 | 0 | 0.9 | 3.5 | 0.00 | 0.77 | 0.77 | 97 | 1014.3 |
| 20260903225018 | 69 | 146 | 0.9 | 3.5 | 0.00 | 0.77 | 0.77 | 97 | 1014.4 |
| 20260903224538 | 69 | 139 | 0.0 | 5.2 | 0.00 | 0.77 | 0.77 | 97 | 1014.5 |
| 20260903224020 | 69 | 0 | 0.9 | 6.1 | 0.00 | 0.77 | 0.77 | 97 | 1014.7 |
| 20260903223519 | 69 | 205 | 2.6 | 6.1 | 0.00 | 0.77 | 0.77 | 97 | 1014.9 |
| 20260903223040 | 69 | 164 | 2.6 | 5.2 | 0.00 | 0.77 | 0.77 | 97 | 1014.8 |
| 20260903222520 | 69 | 173 | 0.9 | 4.3 | 0.00 | 0.77 | 0.77 | 97 | 1015.1 |
| 20260903222022 | 69 | 198 | 0.9 | 1.7 | 0.00 | 0.77 | 0.77 | 97 | 1015.1 |
| 20260903221537 | 69 | 0 | 0.0 | 1.7 | 0.00 | 0.77 | 0.77 | 97 | 1015.3 |
| 20260903221017 | 69 | 0 | 0.0 | 1.7 | 0.00 | 0.77 | 0.77 | 97 | 1015.2 |
| 20260903220520 | 69 | 0 | 0.0 | 2.6 | 0.00 | 0.77 | 0.77 | 97 | 1015.3 |
| 20260903220052 | 69 | 238 | 0.0 | 3.5 | 0.00 | 0.77 | 0.77 | 97 | 1015.6 |
| 20260903215522 | 69 | 0 | 0.9 | 4.3 | 0.00 | 0.77 | 0.77 | 97 | 1015.3 |
| 20260903215020 | 69 | 113 | 0.9 | 4.3 | 0.00 | 0.77 | 0.77 | 97 | 1015.1 |
| 20260903214538 | 69 | 0 | 1.7 | 4.3 | 0.00 | 0.77 | 0.77 | 97 | 1015.0 |
| 20260903214023 | 69 | 184 | 0.9 | 4.3 | 0.00 | 0.77 | 0.77 | 97 | 1015.6 |
| 20260903213524 | 69 | 0 | 0.9 | 4.3 | 0.00 | 0.77 | 0.77 | 97 | 1015.4 |
| 20260903213036 | 69 | 57 | 0.9 | 3.5 | 0.00 | 0.77 | 0.77 | 97 | 1015.6 |
| 20260903212519 | 69 | 242 | 0.9 | 3.5 | 0.01 | 0.77 | 0.77 | 97 | 1015.8 |
| 20260903212019 | 69 | 195 | 0.0 | 5.2 | 0.02 | 0.77 | 0.77 | 97 | 1015.7 |
| 20260903211540 | 69 | 0 | 0.0 | 6.1 | 0.03 | 0.77 | 0.77 | 97 | 1015.7 |
| 20260903211018 | 69 | 23 | 2.6 | 8.7 | 0.04 | 0.77 | 0.77 | 97 | 1015.6 |
| 20260903210517 | 69 | 11 | 3.5 | 8.7 | 0.05 | 0.77 | 0.77 | 97 | 1015.7 |
| 20260903210040 | 69 | 13 | 3.5 | 7.0 | 0.05 | 0.77 | 0.77 | 97 | 1015.6 |
| 20260903205518 | 69 | 27 | 1.7 | 7.0 | 0.05 | 0.77 | 0.77 | 97 | 1015.5 |
| 20260903205020 | 69 | 343 | 3.5 | 7.0 | 0.06 | 0.77 | 0.77 | 97 | 1015.6 |
| 20260903204536 | 69 | 24 | 3.5 | 6.1 | 0.07 | 0.77 | 0.77 | 97 | 1015.8 |
| 20260903204020 | 69 | 4 | 1.7 | 6.1 | 0.12 | 0.77 | 0.77 | 97 | 1015.8 |
| 20260903203516 | 68 | 328 | 1.7 | 7.8 | 0.25 | 0.77 | 0.77 | 97 | 1015.8 |
| 20260903203047 | 68 | 23 | 3.5 | 7.8 | 0.25 | 0.76 | 0.76 | 97 | 1015.9 |
| 20260903202519 | 68 | 49 | 2.6 | 6.1 | 0.25 | 0.76 | 0.76 | 97 | 1015.7 |
| 20260903202017 | 68 | 14 | 0.9 | 7.8 | 0.24 | 0.75 | 0.75 | 97 | 1016.0 |
| 20260903201541 | 68 | 30 | 1.7 | 7.8 | 0.22 | 0.73 | 0.73 | 96 | 1016.0 |
| 20260903201023 | 68 | 11 | 2.6 | 7.0 | 0.22 | 0.73 | 0.73 | 96 | 1016.0 |
| 20260903200518 | 68 | 352 | 0.9 | 8.7 | 0.21 | 0.72 | 0.72 | 96 | 1016.4 |
| 20260903200037 | 68 | 4 | 3.5 | 12.2 | 0.21 | 0.72 | 0.72 | 96 | 1016.1 |
| 20260903195520 | 69 | 347 | 3.5 | 12.2 | 0.21 | 0.72 | 0.72 | 96 | 1016.1 |
| 20260903195023 | 69 | 18 | 5.2 | 14.8 | 0.20 | 0.71 | 0.71 | 95 | 1016.1 |
| 20260903194535 | 69 | 343 | 6.1 | 17.4 | 0.18 | 0.69 | 0.69 | 95 | 1015.7 |
| 20260903194024 | 70 | 324 | 7.8 | 20.9 | 0.10 | 0.61 | 0.61 | 93 | 1015.8 |
| 20260903193520 | 71 | 330 | 10.4 | 20.9 | 0.00 | 0.51 | 0.51 | 91 | 1016.1 |
| 20260903193039 | 72 | 290 | 4.3 | 11.3 | 0.00 | 0.51 | 0.51 | 92 | 1016.0 |
| 20260903192518 | 72 | 306 | 0.9 | 3.5 | 0.00 | 0.51 | 0.51 | 94 | 1015.4 |
| 20260903192017 | 72 | 0 | 0.0 | 5.2 | 0.00 | 0.51 | 0.51 | 95 | 1014.8 |
| 20260903191538 | 72 | 306 | 0.9 | 5.2 | 0.00 | 0.51 | 0.51 | 96 | 1014.8 |
| 20260903191016 | 72 | 326 | 1.7 | 5.2 | 0.00 | 0.51 | 0.51 | 96 | 1014.9 |
| 20260903190518 | 72 | 0 | 0.0 | 8.7 | 0.00 | 0.51 | 0.51 | 96 | 1014.7 |
| 20260903190038 | 72 | 0 | 0.0 | 13.0 | 0.00 | 0.51 | 0.51 | 96 | 1014.8 |
| 20260903185518 | 72 | 349 | 3.5 | 13.0 | 0.00 | 0.51 | 0.51 | 96 | 1015.1 |
| 20260903185017 | 73 | 340 | 0.0 | 2.6 | 0.00 | 0.51 | 0.51 | 96 | 1014.9 |
| 20260903184538 | 73 | 0 | 0.0 | 1.7 | 0.00 | 0.51 | 0.51 | 96 | 1014.5 |
| 20260903184017 | 73 | 188 | 0.0 | 0.0 | 0.00 | 0.51 | 0.51 | 96 | 1014.3 |
| 20260903183517 | 73 | 0 | 0.0 | 1.7 | 0.00 | 0.51 | 0.51 | 96 | 1014.5 |
| 20260903183034 | 73 | 0 | 0.0 | 1.7 | 0.00 | 0.51 | 0.51 | 96 | 1014.5 |
| 20260903182519 | 73 | 0 | 0.0 | 1.7 | 0.00 | 0.51 | 0.51 | 96 | 1014.4 |
| 20260903182019 | 73 | 131 | 0.0 | 0.0 | 0.00 | 0.51 | 0.51 | 97 | 1014.3 |
| 20260903181539 | 73 | 0 | 0.0 | 0.0 | 0.00 | 0.51 | 0.51 | 97 | 1014.5 |
| 20260903181016 | 73 | 0 | 0.0 | 0.0 | 0.00 | 0.51 | 0.51 | 97 | 1014.3 |
| 20260903180518 | 73 | 0 | 0.0 | 0.0 | 0.00 | 0.51 | 0.51 | 97 | 1014.3 |
| 20260903180047 | 73 | 0 | 0.0 | 0.0 | 0.00 | 0.51 | 0.51 | 97 | 1014.3 |
| 20260903175518 | 73 | 0 | 0.0 | 0.9 | 0.00 | 0.51 | 0.51 | 97 | 1014.4 |
| 20260903175017 | 72 | 0 | 0.0 | 3.5 | 0.00 | 0.51 | 0.51 | 97 | 1014.2 |
| 20260903174538 | 72 | 0 | 0.0 | 5.2 | 0.00 | 0.51 | 0.51 | 97 | 1014.3 |
| 20260903174018 | 71 | 19 | 1.7 | 5.2 | 0.00 | 0.51 | 0.51 | 97 | 1014.3 |
| 20260903173520 | 71 | 347 | 3.5 | 7.0 | 0.00 | 0.51 | 0.51 | 97 | 1014.4 |
| 20260903173034 | 71 | 1 | 3.5 | 7.0 | 0.00 | 0.51 | 0.51 | 97 | 1014.5 |
| 20260903172518 | 71 | 358 | 0.9 | 3.5 | 0.09 | 0.51 | 0.51 | 97 | 1014.5 |
| 20260903172016 | 71 | 0 | 0.0 | 0.0 | 0.26 | 0.51 | 0.51 | 97 | 1014.4 |
| 20260903171545 | 71 | 0 | 0.0 | 0.9 | 0.32 | 0.51 | 0.51 | 97 | 1014.4 |
| 20260903171018 | 71 | 131 | 0.0 | 0.9 | 0.32 | 0.51 | 0.51 | 97 | 1014.4 |
| 20260903170521 | 71 | 0 | 0.0 | 2.6 | 0.32 | 0.51 | 0.51 | 97 | 1014.4 |
| 20260903170044 | 70 | 0 | 0.0 | 2.6 | 0.32 | 0.51 | 0.51 | 97 | 1014.5 |
| 20260903165524 | 69 | 138 | 0.0 | 1.7 | 0.33 | 0.51 | 0.51 | 97 | 1014.5 |
| 20260903165024 | 69 | 0 | 0.0 | 0.0 | 0.33 | 0.51 | 0.51 | 97 | 1014.7 |
| 20260903164545 | 69 | 0 | 0.0 | 2.6 | 0.33 | 0.51 | 0.51 | 97 | 1014.6 |
| 20260903164016 | 68 | 0 | 0.0 | 5.2 | 0.33 | 0.51 | 0.51 | 97 | 1014.6 |
| 20260903163517 | 67 | 245 | 0.9 | 14.8 | 0.35 | 0.51 | 0.51 | 96 | 1014.7 |
| 20260903163036 | 67 | 236 | 3.5 | 40.0 | 0.37 | 0.50 | 0.50 | 96 | 1015.1 |
| 20260903162518 | 66 | 211 | 7.8 | 40.0 | 0.26 | 0.39 | 0.39 | 96 | 1015.8 |
| 20260903162018 | 66 | 181 | 2.6 | 7.8 | 0.12 | 0.23 | 0.23 | 96 | 1016.3 |
| 20260903161537 | 66 | 184 | 0.9 | 2.6 | 0.17 | 0.19 | 0.19 | 96 | 1016.1 |
| 20260903161015 | 66 | 193 | 0.0 | 7.8 | 0.19 | 0.19 | 0.19 | 96 | 1016.1 |
| 20260903160524 | 66 | 0 | 0.0 | 7.8 | 0.19 | 0.19 | 0.19 | 96 | 1016.4 |
| 20260903160044 | 65 | 30 | 2.6 | 7.8 | 0.19 | 0.19 | 0.19 | 95 | 1016.2 |
| 20260903155521 | 65 | 0 | 0.0 | 7.8 | 0.18 | 0.18 | 0.18 | 95 | 1016.4 |
| 20260903155020 | 65 | 0 | 0.0 | 8.7 | 0.18 | 0.18 | 0.18 | 95 | 1016.6 |
| 20260903154539 | 66 | 184 | 3.5 | 11.3 | 0.18 | 0.18 | 0.18 | 94 | 1016.5 |
| 20260903154015 | 66 | 219 | 2.6 | 26.9 | 0.18 | 0.18 | 0.18 | 94 | 1016.9 |
| 20260903153516 | 67 | 159 | 7.0 | 29.5 | 0.16 | 0.16 | 0.16 | 93 | 1017.3 |
| 20260903153039 | 69 | 205 | 12.2 | 29.5 | 0.13 | 0.13 | 0.13 | 91 | 1018.1 |
| 20260903152517 | 72 | 237 | 10.4 | 26.1 | 0.13 | 0.13 | 0.13 | 90 | 1018.2 |
| 20260903152021 | 76 | 232 | 13.0 | 24.3 | 0.11 | 0.11 | 0.11 | 85 | 1018.2 |
| 20260903151538 | 78 | 235 | 2.6 | 6.1 | 0.01 | 0.01 | 0.01 | 81 | 1017.2 |
| 20260903151020 | 79 | 274 | 0.9 | 2.6 | 0.00 | 0.00 | 0.00 | 79 | 1016.7 |
| 20260903150520 | 80 | 0 | 0.0 | 0.0 | 0.00 | 0.00 | 0.00 | 78 | 1015.9 |
| 20260903150058 | 80 | 0 | 0.0 | 0.0 | 0.00 | 0.00 | 0.00 | 77 | 1015.6 |